Flag for U.S.A. Weather past 2 weeks in Inglewood, California, U.S.A.

Now
71 °F

Sunny.


Feels Like: 75 °F
Forecast: 48 / 69 °F
Wind: 12 mph from West

Location: Hawthorne Municipal Airport

Current Time: Mar 4, 2015 at 3:01:58 PM

Latest Report: Mar 4, 2015 at 1:53 PM


Visibility: 10 mi

Pressure: 30.07 "Hg

Humidity: 24%

Dew point: 32 °F

Location of InglewoodLocation

Historic Weather in Inglewood — Graph

°F

Inglewood temperature yesterday

Maximum temperature yesterday: 66 °F (at 12:53 PM)
Minimum temperature yesterday: 50 °F (at 3:53 AM)
Average temperature yesterday: 58 °F

Past Weeks' High & Low Weather Summary

 TemperatureHumidityPressure
High75 °F (Feb 24, 1:53 PM)93% (Feb 23, 2:53 AM)30.24 "Hg (Feb 23, 2:53 AM)
Low48 °F (Feb 24, 4:53 AM)12% (Feb 24, 1:53 PM)29.75 "Hg (Feb 27, 11:53 PM)
Average60 °F68%29.98 "Hg
* Reported Feb 17 12:53 PM — Mar 4 12:53 PM, Inglewood, Weather by CustomWeather, © 2015

Note: Actual official high and low records may vary slightly from our data, if they occured in-between our weather recording intervals... More about our weather records

Advertising

Inglewood weather history for previous 24 hours

 ConditionsComfort  
Time TempWeatherWind HumidityBarometerVisibility
12:53 PM
Wed, Mar 4
70 °FSunny.8 mph30%30.08 "Hg10 mi
11:53 AM69 °FSunny.N/A31%30.09 "Hg10 mi
10:53 AM66 °FSunny.No wind37%30.09 "Hg10 mi
9:53 AM64 °FSunny.3 mph43%30.09 "Hg10 mi
8:53 AM61 °FSunny.3 mph52%30.08 "Hg10 mi
7:53 AM56 °FSunny.No wind62%30.06 "Hg10 mi
6:53 AM52 °FSunny.No wind72%30.03 "Hg10 mi
5:53 AM51 °FClear.No wind74%30.01 "Hg10 mi
4:53 AM51 °FClear.No wind77%29.99 "Hg10 mi
3:53 AM51 °FClear.No wind77%29.98 "Hg10 mi
2:53 AM52 °FClear.No wind77%29.98 "Hg10 mi
1:53 AM53 °FClear.No wind74%29.98 "Hg10 mi
12:53 AM54 °FClear.No wind77%29.97 "Hg10 mi
11:53 PM
Tue, Mar 3
55 °FClear.No wind64%29.96 "Hg10 mi
10:53 PM57 °FClear.No wind69%29.95 "Hg10 mi
9:53 PM59 °FClear.No wind67%29.95 "Hg10 mi
8:53 PM59 °FClear.3 mph67%29.93 "Hg10 mi
7:53 PM60 °FClear.6 mph65%29.92 "Hg10 mi
6:53 PM60 °FClear.8 mph65%29.90 "Hg10 mi
5:53 PM60 °FClear.10 mph65%29.89 "Hg10 mi
4:53 PM62 °FSunny.14 mph54%29.89 "Hg10 mi
3:53 PM63 °FSunny.14 mph50%29.89 "Hg10 mi
Weather by CustomWeather, © 2015

See weather overviewHow to use our weather pages